Location: Genestriaux
(50.1849°N, 4.1681°E)
Time: 19:59:53
(UTC+00:00)

Daily predictions for brighter satellites

Satellite Brightness Start Highest point End
(mag) Time Altitude Azimuth Time Altitude Azimuth Time Altitude Azimuth
Cosmos 1825 Rocket 3.8 20:29:14 10° S 20:33:34 54° E 20:37:56 10° NNE
CZ-2C R/B 3.6 20:29:30 10° N 20:34:47 53° WNW 20:39:55 10° SW
Cosmos 2333 Rocket 2.9 20:30:29 10° SSE 20:35:31 34° ESE 20:40:37 10° NE
Cosmos 1812 Rocket 4.4 20:34:29 10° NNW 20:38:41 49° W 20:42:51 10° SSW
GEOS 3 Rocket 4.1 20:34:23 10° NE 20:39:28 40° ESE 20:44:30 10° SSW
SL-16 R/B 3.4 20:39:00 10° SW 20:44:29 49° NW 20:50:02 10° NNE
Cosmos 1315 Rocket 3.7 20:41:53 10° N 20:45:45 38° ENE 20:49:37 10° SE
Spot 2 Rocket 3.6 20:40:45 10° SSE 20:45:51 86° WSW 20:51:01 10° NNW
IGS 5A 3.5 20:43:28 10° SSE 20:47:38 87° W 20:51:50 10° NNW
ATLAS 5 CENTAUR R/B 1.5 20:48:12 10° SW 20:52:22 79° SE 20:57:07 10° NE
Cosmos 2278 Rocket 3.0 20:47:43 10° NNW 20:53:09 42° NE 20:58:30 10° ESE
CARTOSAT-1 3.8 20:49:58 10° SSE 20:54:11 59° ENE 20:58:27 10° N
USA 81 4.4 20:49:44 10° SSE 20:54:46 48° E 20:59:51 10° NNE
Cosmos 1844 Rocket 3.3 20:49:57 10° NW 20:55:22 53° WSW 21:00:46 10° S
USA 267 3.7 20:51:38 10° E 20:58:07 66° NNE 21:04:38 10° WNW
Cosmos 1709 Rocket 4.1 20:51:52 10° S 20:58:09 76° E 21:04:32 10° NNE
Meteor 1-11 4.3 20:58:56 10° S 21:04:30 67° E 21:10:11 10° NNE
SPOT 1/Viking Rocket 3.7 21:01:24 10° S 21:06:33 75° WSW 21:11:45 10° NNW
Cosmos-2242 3.7 21:02:21 10° NNW 21:06:37 55° W 21:10:52 10° S
Cosmos 1400 Rocket 3.6 21:03:29 10° NNW 21:07:20 48° W 21:11:07 10° S
Cosmos 2221 3.2 21:07:29 10° N 21:11:40 41° ENE 21:15:14 13° SE
Lacrosse 5 rocket 3.3 21:10:23 10° WNW 21:14:11 31° N 21:17:47 10° ENE
Resurs 01 Rocket 3.8 21:12:43 10° SW 21:16:11 22° W 21:19:40 10° NW
SAR-Lupe-2 3.5 21:14:47 10° NNE 21:18:24 90° E 21:21:59 10° SSW
Terra 1.9 21:14:58 12° SSE 21:19:15 68° ENE 21:24:01 10° N
TSX-5 3.9 21:23:30 10° NNW 21:26:54 58° NE 21:30:04 15° SE
NOSS 3-4 (A) 4.1 21:21:53 10° NW 21:28:40 65° NE 21:36:04 11° ESE
NOSS 3-4 (C) 4.1 21:21:59 10° NW 21:28:46 65° NE 21:36:11 10° ESE
Cosmos 2058 3.9 21:27:38 16° SE 21:30:18 30° E 21:33:56 10° NNE
Cosmos 2322 Rocket 4.3 21:26:25 10° WSW 21:31:20 30° NW 21:36:18 10° NNE
NOSS 3-3 (A) 3.9 21:33:46 10° SSW 21:39:38 74° SE 21:46:20 10° NE
NOSS 3-3 (C) 3.9 21:33:52 10° SSW 21:39:45 73° SE 21:46:27 10° NE
Cosmos 1825 4.1 21:39:57 14° ESE 21:41:32 17° E 21:44:02 10° NE
Cosmos 2369 Rocket 4.5 21:40:21 10° N 21:44:05 18° NNE 21:47:48 10° ENE
Cosmos 1980 4.1 21:41:49 13° S 21:46:25 42° ESE 21:51:42 10° NE
Aureole 2 Rocket 4.3 21:45:09 10° NNE 21:47:01 16° NE 21:48:50 10° E
Cosmos 1538 Rocket 4.1 21:41:39 10° SSW 21:47:01 83° WNW 21:52:24 10° NNE
Cosmos 1076 Rocket 4.0 21:47:32 19° SSE 21:50:15 43° E 21:54:19 10° NNE
Nadezhda 3 Rocket 4.3 21:44:10 10° N 21:50:29 61° ENE 21:55:18 18° SSE
COSMOS 2455 4.4 21:46:10 10° NNW 21:51:29 31° NE 21:56:47 10° E
Cosmos 2084 4.4 21:49:07 10° WNW 21:53:15 38° WSW 21:56:03 18° S
COSMOS 2428 2.8 21:48:01 10° SSW 21:53:42 83° WNW 21:59:26 10° NNE
Cosmos 2154 Rocket 4.3 21:49:47 16° SSE 21:54:32 53° E 22:00:33 10° NNE
ATLAS 2AS CENTAUR R/B 2.9 21:48:57 10° NW 21:56:41 80° NE 22:02:39 15° SE
Cosmos 2151 4.4 21:55:43 18° SE 21:57:43 25° E 22:01:12 10° NE
Thor Agena Rocket 4.3 21:53:59 10° NNE 21:58:39 34° E 22:01:29 20° SSE
ATLAS CENTAUR R/B 2.5 21:55:49 10° WNW 21:58:58 27° WSW 22:00:56 17° SSW
Cosmos 1869 3.5 21:55:49 10° NNW 21:59:47 66° W 22:02:34 19° S
Cosmos 2074 Rocket 4.0 21:54:31 11° S 22:00:27 88° E 22:06:43 10° N
BREEZE-M DEB (TANK) 1.7 21:56:16 10° W 22:01:30 77° S 22:03:24 17° ESE
ERS-1 Rocket 4.2 21:56:53 10° SSW 22:01:31 36° W 22:06:11 10° NNW
Genesis I 4.0 22:00:58 23° SSE 22:02:34 32° ESE 22:06:05 10° ENE
Cosmos 1842 Rocket 4.1 21:59:03 10° NNW 22:03:18 53° W 22:06:35 16° SSW
Cosmos 2237 Rocket 2.4 21:59:39 14° S 22:04:22 54° ESE 22:09:56 10° NE
Cosmos 1371 Rocket 4.2 21:59:55 10° NNW 22:05:10 65° ENE 22:08:51 20° SE
Cosmos 2219 Rocket 2.6 21:59:46 10° SW 22:05:19 64° WNW 22:10:56 10° NNE
SPOT 5 4.1 22:02:26 11° SSW 22:06:53 36° W 22:11:18 10° NNW
USA 215 3.2 22:00:53 10° ENE 22:07:28 72° SE 22:14:00 10° SW
Cosmos 2360 Rocket 4.3 22:03:38 10° WSW 22:08:32 30° NW 22:13:29 10° NNE
Spot 4 4.2 22:06:50 20° SE 22:09:58 55° ENE 22:14:38 10° N
Cosmos 2344 3.9 22:05:03 12° S 22:11:27 44° ESE 22:18:54 10° NE
Cosmos 158 Rocket 4.0 22:09:32 19° S 22:12:49 55° ESE 22:17:37 10° NNE
Cosmos 1151 Rocket 4.5 22:09:31 10° N 22:13:13 26° ENE 22:15:44 16° ESE
Cosmos 2112 Rocket 4.2 22:12:33 19° S 22:16:18 57° ESE 22:21:34 10° NNE
CZ-4C R/B 4.1 22:11:08 10° NW 22:17:14 37° NNE 22:24:22 10° E
GEOS 3 Rocket 4.5 22:12:20 10° NE 22:17:36 55° NW 22:22:51 10° WSW
Cosmos 2333 Rocket 3.1 22:14:05 10° SW 22:19:37 50° NW 22:25:13 10° NNE
ALOS 2 3.6 22:18:57 18° ESE 22:21:37 36° ENE 22:25:40 10° N
Cosmos 2327 Rocket 4.5 22:17:25 16° S 22:22:28 89° E 22:28:37 10° N
Iridium 2 3.7 22:20:05 10° N 22:23:56 77° E 22:25:48 29° SSE
EO 1 Del DPAF 3.5 22:24:44 10° NNE 22:28:24 49° E 22:29:55 30° SSE
Cosmos 1892 3.0 22:26:26 20° SSW 22:28:56 63° WNW 22:32:44 10° N
Cosmos 2056 Rocket 3.6 22:23:35 10° NNW 22:29:02 85° ENE 22:32:26 24° SSE
NOSS 0 Rocket 3.9 22:23:21 10° SSW 22:29:31 87° WNW 22:35:45 10° NNE
GP-B 4.0 22:26:53 10° NNE 22:31:00 35° E 22:33:05 23° SE
Cosmos 1295 Rocket 4.4 22:29:34 20° S 22:33:58 80° E 22:40:06 10° NNE
Cosmos 1606 3.3 22:31:54 10° N 22:35:40 47° ENE 22:37:25 27° SE
Cosmos 2278 Rocket 3.0 22:31:57 10° NW 22:37:13 40° WSW 22:40:40 20° SSW
ATLAS 5 CENTAUR R/B 4.0 22:33:44 10° W 22:37:34 27° NNW 22:41:53 10° NE
Cosmos 1408 2.6 22:37:56 28° SSW 22:39:44 75° W 22:43:19 10° N
Cosmos 2297 3.8 22:34:19 10° NNW 22:40:05 74° ENE 22:43:52 22° SE
Cosmos 1943 Rocket 3.1 22:35:21 10° NNW 22:40:46 42° NE 22:45:30 13° ESE
USA 267 3.4 22:36:39 20° SE 22:41:14 60° SW 22:47:44 10° WNW
MOS 1-B Rocket 4.4 22:34:06 10° NNE 22:41:54 72° ESE 22:46:38 21° S
Cosmos 44 3.6 22:40:51 29° SSE 22:42:10 37° ESE 22:46:15 10° NE
Cosmos 1680 Rocket 3.6 22:39:45 14° SSW 22:44:21 79° WNW 22:49:43 10° NNE
Cosmos 371 Rocket 3.6 22:43:40 10° NNW 22:48:31 62° ENE 22:51:21 24° SE
Cosmos 2221 4.4 22:45:33 10° NW 22:49:00 23° W 22:52:05 12° SW
SL-16 R/B 2.6 22:46:35 25° SSE 22:49:30 46° ESE 22:54:54 10° NE
APEX 3.5 22:50:24 10° NNW 22:53:00 37° NE 22:53:52 28° E
CREW DRAGON DEMO-1 DEB 2.8 22:53:16 51° SSE 22:53:25 52° SSE 22:56:26 10° ENE
Lacrosse 5 rocket 2.5 22:50:09 10° NW 22:54:03 42° NNE 22:57:44 10° E
Cosmos 1452 Rocket 3.9 22:50:45 10° NNW 22:55:57 57° ENE 22:59:20 21° SE
Terra 4.0 22:54:18 10° SW 22:57:29 18° W 23:00:41 10° NW
Cosmos 1515 Rocket 4.4 22:53:49 10° N 22:57:58 41° ENE 23:00:08 24° SE
IRIDIUM 114 4.5 22:59:06 27° SSE 23:01:52 63° E 23:07:02 10° N
Cosmos 1766 Rocket 3.5 23:01:32 32° S 23:03:31 73° E 23:07:57 10° NNE
Cosmos 1328 Rocket 3.5 22:59:51 10° N 23:04:11 75° ENE 23:06:06 32° SSE
Okean 3 Rocket 3.5 23:07:35 30° SSW 23:09:47 86° WNW 23:14:14 10° N
IRIDIUM 103 4.3 23:08:14 28° S 23:10:59 75° E 23:16:13 10° N
Meteor 2-3 Rocket 4.0 23:12:54 27° SSE 23:15:53 59° E 23:21:30 10° NNE
Cosmos 1825 3.0 23:14:44 23° SW 23:16:42 43° WNW 23:20:21 10° N
Cosmos 1340 2.8 23:15:33 39° SSE 23:16:42 60° E 23:20:26 10° NNE
Cosmos 2228 Rocket 4.1 23:14:38 10° N 23:18:58 39° ENE 23:21:26 22° SE
NOSS 3-4 (C) 4.5 23:13:06 10° NW 23:19:35 41° WSW 23:23:36 23° S
Aureole 2 Rocket 3.1 23:18:07 10° NW 23:20:42 31° WSW 23:20:49 30° WSW
Cosmos 2218 Rocket 4.0 23:17:43 26° S 23:21:35 82° E 23:27:54 10° N
Meteor 1-26 Rocket 4.3 23:18:57 10° NNW 23:25:00 87° E 23:28:23 27° SSE
Cosmos 2366 rocket 4.0 23:21:57 26° S 23:25:47 83° E 23:32:11 10° N
Cosmos 2369 Rocket 2.5 23:23:41 10° NNW 23:29:16 63° ENE 23:33:18 19° SE
IRIDIUM 106 4.3 23:26:31 28° S 23:29:18 80° W 23:34:34 10° N
Cosmos 1743 Rocket 4.1 23:29:40 30° SE 23:31:19 45° E 23:35:28 10° NNE
Cosmos 304 Rocket 3.9 23:27:32 10° NNW 23:32:24 74° ENE 23:35:01 27° SE
SL-4 R/B 1.7 23:33:31 38° NNW 23:33:31 38° NNW 23:34:58 10° NNW
Cosmos 1933 3.7 23:30:11 10° NNW 23:34:06 53° W 23:35:34 34° SSW
Cosmos 1959 Rocket 4.5 23:30:32 26° SSW 23:34:15 85° W 23:40:31 10° N
Cosmos 2151 4.1 23:32:17 19° SW 23:34:50 37° WNW 23:38:50 10° N
YAOGAN 11 4.2 23:33:15 31° SSE 23:35:17 74° ENE 23:39:44 10° NNW
Helios 1A 2.9 23:34:08 36° SSE 23:35:49 89° WSW 23:39:59 10° NNW
COSMOS 2455 2.8 23:31:59 10° NW 23:38:03 79° WSW 23:41:47 25° SSE
ATLAS 2AS CENTAUR R/B 3.8 23:40:43 10° NW 23:46:56 29° WSW 23:50:03 21° SSW
Cosmos 2237 Rocket 3.7 23:43:33 10° WSW 23:48:42 34° NW 23:53:54 10° NNE
Cosmos 1812 4.1 23:45:56 10° N 23:49:27 32° ENE 23:51:26 20° ESE
USA 215 3.9 23:44:00 10° ENE 23:50:25 59° NNW 23:56:51 10° W
Cosmos 1151 Rocket 4.0 23:46:54 10° NNW 23:50:52 36° W 23:52:34 25° SW
Cosmos 1782 2.7 23:47:44 10° NNW 23:51:42 79° W 23:53:04 39° S
CZ-2D R/B 4.4 23:51:16 10° ENE 23:53:38 13° E 23:56:00 10° ESE
Cosmos 1408 Rocket 3.9 23:52:07 29° SW 23:54:10 59° WNW 23:58:34 10° N
